NAS Fort Worth JRB, TX

10:38 PM CST on February 20, 2017 (GMT -0600)
Fort Worth Naval Air Station Jrb

Weather History for KNFW - May, 2013

Change the Weather History Date:

Wednesday, May 15, 2013

  Actual Average Record
Temperature  
Mean Temperature 72 °F -  
Max Temperature 82 °F 81 °F 90 °F (1999)
Min Temperature 64 °F 63 °F 52 °F (2011)
Cooling Degree Days 8    
Growing Degree Days 22 (Base 50)    
Moisture  
Dew Point 64 °F    
Average Humidity 69    
Maximum Humidity 88    
Minimum Humidity 58    
Precipitation  
Precipitation 1.98 in - - ()
Sea Level Pressure  
Sea Level Pressure 29.90 in    
Wind  
Wind Speed 17 mph (SSE)    
Max Wind Speed 36 mph    
Max Gust Speed 41 mph    
Visibility 8 miles    
Events Rain , Hail , Thunderstorm    
Averages and records for this station are not official NWS values.
T = Trace of Precipitation, MM = Missing Value Source: NWS Daily Summary

Daily Weather History Graph

Daily Weather History Graph

Search for Another Location

Airport or City:

Trip Planner

Search our weather history database for the weather conditions in past years. The results will help you decide how hot, cold, wet, or windy it might be!

Date:

Astronomy

May. 15, 2013 Rise Set
Actual Time 6:30 AM CDT 8:21 PM CDT
Civil Twilight 6:03 AM CDT 8:49 PM CDT
Nautical Twilight 5:30 AM CDT 9:22 PM CDT
Astronomical Twilight 4:55 AM CDT 9:57 PM CDT
Moon 11:04 AM CDT (5/15) 12:11 AM CDT (5/15)
Length of Visible Light 14h 45m
Length of Day
13h 51m
Waxing Crescent, 27% of the Moon is Illuminated
May 15
Waxing Crescent
May 17
First Quarter
May 24
Full
May 31
Last Quarter
Jun 8
New

Hourly Weather History & Observations

Time (CDT) Temp. Heat Index Dew Point Humidity Pressure Visibility Wind Dir Wind Speed Gust Speed Precip Events Conditions
12:52 AM 75.9 °F - 60.1 °F 58% 30.02 in 10.0 mi South 13.8 mph - 0.00 in   Clear
1:52 AM 75.0 °F - 63.0 °F 66% 30.00 in 10.0 mi South 21.9 mph 27.6 mph 0.00 in   Clear
2:52 AM 73.9 °F - 63.0 °F 68% 29.99 in 10.0 mi South 20.7 mph 27.6 mph N/A   Clear
3:52 AM 73.9 °F - 63.0 °F 68% 29.98 in 10.0 mi South 19.6 mph 27.6 mph 0.00 in   Clear
4:52 AM 73.0 °F - 63.0 °F 71% 29.96 in 10.0 mi SSE 19.6 mph 25.3 mph 0.00 in   Partly Cloudy
5:52 AM 73.0 °F - 62.1 °F 68% 29.97 in 10.0 mi South 13.8 mph - N/A   Scattered Clouds
6:05 AM 73.4 °F - 62.6 °F 69% 30.01 in 10.0 mi South 19.6 mph 25.3 mph N/A   Mostly Cloudy
6:06 AM 73.4 °F - 62.6 °F 69% 30.01 in 10.0 mi SSE 12.7 mph 21.9 mph N/A   Overcast
6:52 AM 72.0 °F - 62.1 °F 71% 29.96 in 10.0 mi SSE 15.0 mph - N/A   Mostly Cloudy
7:38 AM 71.6 °F - 62.6 °F 73% 30.03 in 7.0 mi South 11.5 mph - 0.01 in Rain Light Rain
7:52 AM 71.1 °F - 63.0 °F 75% 29.99 in 10.0 mi SSE 12.7 mph - 0.01 in Rain Light Rain
8:02 AM 71.6 °F - 62.6 °F 73% 30.04 in 10.0 mi SSE 11.5 mph - N/A   Mostly Cloudy
8:52 AM 73.0 °F - 64.0 °F 73% 30.00 in 10.0 mi South 15.0 mph 24.2 mph N/A   Mostly Cloudy
9:52 AM 77.0 °F - 63.0 °F 62% 29.99 in 10.0 mi South 20.7 mph 24.2 mph N/A   Mostly Cloudy
10:16 AM 77.0 °F - 62.6 °F 61% 30.03 in 10.0 mi SSE 18.4 mph 26.5 mph N/A   Mostly Cloudy
10:52 AM 78.1 °F - 62.1 °F 58% 29.98 in 10.0 mi South 19.6 mph 25.3 mph N/A   Overcast
11:52 AM 79.0 °F - 63.0 °F 58% 29.97 in 10.0 mi South 16.1 mph 25.3 mph N/A   Mostly Cloudy
12:41 PM 80.6 °F 82.3 °F 64.4 °F 58% 29.99 in 10.0 mi South 18.4 mph 28.8 mph N/A   Mostly Cloudy
12:52 PM 79.0 °F - 64.0 °F 60% 29.94 in 10.0 mi SSE 20.7 mph 27.6 mph N/A   Mostly Cloudy
1:31 PM 77.0 °F - 64.4 °F 65% 29.98 in 10.0 mi SSE 15.0 mph 23.0 mph 0.00 in Rain Light Rain
1:43 PM 78.8 °F - 64.4 °F 61% 29.97 in 10.0 mi SSE 16.1 mph - 0.00 in   Overcast
1:52 PM 78.1 °F - 64.0 °F 62% 29.92 in 10.0 mi SSE 17.3 mph - 0.00 in   Overcast
2:21 PM 78.8 °F - 64.4 °F 61% 29.95 in 10.0 mi South 17.3 mph 26.5 mph N/A   Overcast
2:52 PM 81.0 °F 82.7 °F 64.9 °F 58% 29.88 in 10.0 mi SSE 19.6 mph 27.6 mph N/A   Mostly Cloudy
3:45 PM 80.6 °F 82.3 °F 64.4 °F 58% 29.91 in 10.0 mi SSE 19.6 mph 29.9 mph N/A   Mostly Cloudy
3:52 PM 79.0 °F - 64.9 °F 62% 29.86 in 10.0 mi SSE 20.7 mph 27.6 mph N/A   Mostly Cloudy
4:52 PM 79.0 °F - 64.9 °F 62% 29.82 in 10.0 mi SSE 19.6 mph 29.9 mph N/A   Scattered Clouds
5:12 PM 80.6 °F 82.3 °F 64.4 °F 58% 29.84 in 10.0 mi SSE 23.0 mph - N/A   Mostly Cloudy
5:52 PM 79.0 °F - 64.9 °F 62% 29.78 in 10.0 mi SSE 23.0 mph 27.6 mph N/A   Overcast
6:17 PM 78.8 °F - 66.2 °F 65% 29.80 in 10.0 mi SSE 18.4 mph 29.9 mph N/A   Mostly Cloudy
6:39 PM 78.8 °F - 66.2 °F 65% 29.79 in 10.0 mi SE 18.4 mph 27.6 mph N/A Thunderstorm Thunderstorm
6:52 PM 80.1 °F 82.1 °F 66.0 °F 62% 29.76 in 10.0 mi SSE 16.1 mph 25.3 mph N/A Thunderstorm Thunderstorm
6:59 PM 78.8 °F - 66.2 °F 65% 29.80 in 10.0 mi SE 15.0 mph - N/A Thunderstorm Thunderstorm
7:04 PM 78.8 °F - 66.2 °F 65% 29.80 in 10.0 mi SE 17.3 mph 25.3 mph N/A Thunderstorm Thunderstorm
7:22 PM 78.8 °F - 66.2 °F 65% 29.82 in 10.0 mi ESE 8.1 mph - 0.00 in Rain , Thunderstorm Light Thunderstorms and Rain
7:52 PM 77.0 °F - 66.9 °F 71% 29.78 in 7.0 mi SE 9.2 mph - 0.02 in Rain , Thunderstorm Light Thunderstorms and Rain
8:27 PM 75.2 °F - 68.0 °F 78% 29.79 in 1.8 mi SSE 35.7 mph 41.4 mph 0.24 in Rain , Thunderstorm Heavy Thunderstorms and Rain
8:35 PM 73.4 °F - 68.0 °F 83% 29.79 in 1.0 mi SE 25.3 mph 41.4 mph 0.39 in Rain , Thunderstorm Heavy Thunderstorms and Rain
8:40 PM 73.4 °F - 69.8 °F 88% 29.78 in 2.0 mi SE 20.7 mph 38.0 mph 0.39 in Rain , Thunderstorm Light Thunderstorms and Rain
8:52 PM 73.9 °F - 69.1 °F 85% 29.73 in 10.0 mi SE 18.4 mph 26.5 mph 0.39 in Rain , Thunderstorm Light Thunderstorms and Rain
9:07 PM 73.4 °F - 68.0 °F 83% 29.77 in 10.0 mi SE 13.8 mph 25.3 mph 0.00 in Thunderstorm Thunderstorm
9:52 PM 73.9 °F - 64.0 °F 71% 29.75 in 10.0 mi SSE 12.7 mph 21.9 mph 0.00 in Thunderstorm Thunderstorm
10:37 PM 71.6 °F - 64.4 °F 78% 29.89 in 0.8 mi ESE 12.7 mph 17.3 mph 0.52 in Rain , Hail , Thunderstorm Heavy Thunderstorms with Hail
10:49 PM 66.2 °F - 60.8 °F 83% 29.90 in 1.5 mi East 19.6 mph 31.1 mph 0.69 in Rain , Thunderstorm Light Thunderstorms and Rain
10:52 PM 66.9 °F - 60.1 °F 79% 29.86 in 4.0 mi ENE 17.3 mph 29.9 mph 0.69 in Rain , Thunderstorm Light Thunderstorms and Rain
11:08 PM 66.2 °F - 60.8 °F 83% 29.94 in 0.8 mi North 9.2 mph 39.1 mph 0.44 in Rain , Thunderstorm Heavy Thunderstorms and Rain
11:23 PM 64.4 °F - 59.0 °F 83% 29.87 in 3.0 mi East 11.5 mph - 0.87 in Rain , Thunderstorm Light Thunderstorms and Rain
11:52 PM 66.9 °F - 59.0 °F 76% 29.79 in 10.0 mi SSE 17.3 mph 21.9 mph 0.87 in Thunderstorm Thunderstorm